Regional Weather Roundup
Issued by NWS

Home | Current Version | Previous Version | Text Only | Print | Product List | Glossary Off
Versions: 1 2 3 4 5 6 7 8 9 10 11 12 13 14 15 16 17 18 19 20 21 22 23 24 25 26 27 28 29 30 31 32 33 34 35 36 37 38 39 40 41 42 43 44 45 46 47 48 49 50

000
ASUS43 KFSD 182002
RWRSD

WEATHER ROUNDUP FOR SOUTH DAKOTA
NATIONAL WEATHER SERVICE SIOUX FALLS SD
300 PM CDT THU SEP 18 2014

NOTE: "FAIR" INDICATES FEW OR NO CLOUDS BELOW 12,000 FEET WITH NO
SIGNIFICANT WEATHER AND/OR OBSTRUCTIONS TO VISIBILITY.


SDZ001>005-009-010-012>017-182100-
NORTHWEST AND NORTH CENTRAL SOUTH DAKOTA

CITY           SKY/WX    TMP DP  RH WIND       PRES   REMARKS
FAITH            N/A     80  63  55 S17G23    29.78F
MOBRIDGE       MOSUNNY   81  62  52 S20G26    29.76F
$$

SDZ012>016-024>037-041>051-057-063-072>074-182100-
SOUTHWEST AND SOUTH CENTRAL SOUTH DAKOTA

CITY           SKY/WX    TMP DP  RH WIND       PRES   REMARKS
RAPID CTY ARPT PTSUNNY   86  56  35 SE12      29.79F
PIERRE         MOSUNNY   82  61  48 S26       29.79F
CUSTER         SUNNY     84  36  18 SW3G18    29.97F
ELLSWORTH AFB  PTSUNNY   86  55  33 SE12      29.79F
PHILIP         SUNNY     86  61  42 SE10G17   29.77F
PINE RIDGE     SUNNY     87  58  37 S10       29.84F
WINNER         FAIR      82  57  42 S20G28    29.86F
$$

SDZ004>011-016>023-039-040-182100-
NORTHEAST SOUTH DAKOTA

CITY           SKY/WX    TMP DP  RH WIND       PRES   REMARKS
ABERDEEN       SUNNY     78  62  57 S20G26    29.85F
WATERTOWN      MOSUNNY   75  57  53 S17G26    29.92F
$$

SDZ017-020-022-023-036>040-048>070-182100-
SOUTHEAST SOUTH DAKOTA

CITY           SKY/WX    TMP DP  RH WIND       PRES   REMARKS
SIOUX FALLS    MOSUNNY   77  54  44 S18G25    29.96F
HURON          PTSUNNY   76  60  57 S16G23    29.89F
CHAMBERLAIN    SUNNY     75  60  60 S17G25    29.87F
MITCHELL       PTSUNNY   75  61  61 S14       29.91F
YANKTON        SUNNY     73  57  56 S18       29.94F
$$

ABBREVIATIONS USED IN REMARKS
   TC - TEMPERATURE IN CELSIUS
  WCI - WIND CHILL INDEX
   HX - HEAT INDEX
  VSB - VISIBILITY




USA.gov is the U.S. government's official web portal to all federal, state and local government web resources and services.